This is the latest recevied weather packets stored in our database for station/object DF1GD-10. If no packets are shown the sender has not sent any weather packets the latest 10 day(s).
| Time | Temp. | Humidity | Pressure | Rain* | Wind** | Luminosity | Snow |
|---|---|---|---|---|---|---|---|
| 1788052933 | 17.22° C | 55% | 1014.9 hPa | - | - | - | - |
| 1788052033 | 17.22° C | 55% | 1014.9 hPa | - | - | - | - |
| 1788051133 | 17.22° C | 55% | 1014.9 hPa | - | - | - | - |
| 1788050233 | 17.78° C | 53% | 1014.8 hPa | - | - | - | - |
| 1788049333 | 17.78° C | 51% | 1015 hPa | - | - | - | - |
| 1788048433 | 17.78° C | 50% | 1015 hPa | - | - | - | - |
| 1788047533 | 17.78° C | 49% | 1014.8 hPa | - | - | - | - |
| 1788046632 | 17.78° C | 50% | 1014.9 hPa | - | - | - | - |
| 1788045732 | 17.78° C | 52% | 1014.9 hPa | - | - | - | - |
| 1788044832 | 17.78° C | 51% | 1014.8 hPa | - | - | - | - |
| 1788043932 | 17.78° C | 50% | 1014.6 hPa | - | - | - | - |
| 1788043032 | 18.33° C | 50% | 1014.4 hPa | - | - | - | - |
| 1788042132 | 18.33° C | 49% | 1014.4 hPa | - | - | - | - |
| 1788041232 | 18.33° C | 49% | 1014.3 hPa | - | - | - | - |
| 1788040331 | 18.33° C | 48% | 1014.2 hPa | - | - | - | - |
| 1788039431 | 18.33° C | 49% | 1014.3 hPa | - | - | - | - |
| 1788038531 | 17.78° C | 50% | 1014.3 hPa | - | - | - | - |
| 1788037631 | 18.33° C | 49% | 1014.3 hPa | - | - | - | - |
| 1788036731 | 18.33° C | 49% | 1014.4 hPa | - | - | - | - |
| 1788035831 | 18.33° C | 48% | 1014.4 hPa | - | - | - | - |
| 1788034931 | 19.44° C | 42% | 1014.2 hPa | - | - | - | - |
| 1788034030 | 19.44° C | 40% | 1014.2 hPa | - | - | - | - |
| 1788033130 | 19.44° C | 39% | 1014.1 hPa | - | - | - | - |
| 1788032230 | 19.44° C | 38% | 1014.1 hPa | - | - | - | - |
| 1788031330 | 20° C | 38% | 1014.1 hPa | - | - | - | - |
* Rain since midnight (hover to see other rain measurements)
** Current wind speed in m/s (hover to see current wind gust speed)